Wind_Speed
12 14 16 19 18 17 16 13 14 15 16 14 13 13 14 12 12 10 11 12 12 11 12 13 11 9 7 6 5 5 6 8 10 11 11 13 14 17 15 15 12 8 11
12 14 17 19 21 19 19 15 15 16 15 13 14 14 15 14 14 14 12 11 11 12 14 14 13 11 10 9 9 9 9 9 11 11 12 13 13 15 16 15 11 12 14
15 12 16 20 25 23 20 18 16 14 15 14 14 13 14 16 16 18 16 13 12 15 17 17 15 14 12 12 11 12 12 11 12 13 14 14 15 15 14 15 14 11 14
15 12 12 11 22 24 23 20 17 15 14 14 13 14 15 14 15 17 18 17 17 17 18 18 18 17 15 13 14 13 14 15 14 15 15 15 14 14 15 15 16 15 12
17 14 11 9 10 20 26 23 19 18 17 16 15 16 16 16 16 16 18 20 20 20 20 19 19 18 16 16 16 15 16 17 17 16 17 16 17 16 16 14 15 18 16
14 15 13 13 14 13 25 26 24 22 21 21 20 19 18 18 18 19 20 20 21 21 22 20 20 20 18 18 17 17 17 18 19 18 18 17 17 18 15 15 17 18 17
9 12 13 13 15 17 16 21 23 25 26 24 23 24 22 20 19 21 23 24 24 23 21 21 21 20 20 20 18 19 20 20 20 19 19 17 15 16 16 15 17 19 17
9 9 10 12 14 17 20 19 18 21 23 22 24 25 22 23 25 26 26 26 26 27 27 23 22 22 22 22 21 22 22 22 21 20 19 18 16 17 18 17 19 18 16
6 8 9 10 11 11 17 22 22 22 23 23 25 25 24 25 28 28 28 28 30 29 29 28 28 27 26 26 25 26 25 24 21 22 21 19 20 18 17 18 20 21 18
7 7 9 10 10 10 11 16 19 22 23 24 26 27 27 28 30 29 31 31 33 33 33 29 29 27 28 29 27 28 28 24 23 24 24 21 21 19 19 21 21 23 21
11 10 9 9 10 10 13 13 14 16 19 21 19 23 25 27 31 33 32 32 33 35 34 32 33 33 32 31 31 30 32 29 28 27 26 23 23 21 21 21 22 22 22
14 15 13 11 10 12 12 14 16 17 19 17 19 22 26 27 27 27 29 33 30 34 35 33 32 33 33 32 33 34 33 32 31 28 25 25 25 24 23 24 24 24 23
14 14 15 16 15 14 12 14 16 17 19 20 21 19 23 23 27 28 27 27 28 33 35 31 31 32 32 33 30 36 36 34 32 31 26 27 26 26 26 26 26 24 22
22 17 14 14 19 19 17 15 15 16 16 20 19 19 19 22 23 24 23 28 31 32 31 32 33 29 27 27 31 30 29 29 29 28 27 27 26 28 27 27 27 24 24
27 24 20 19 15 18 21 20 16 16 16 17 16 18 15 16 19 23 21 22 21 20 22 28 34 36 32 28 27 31 33 33 24 30 33 29 28 30 30 32 30 33 31
35 30 26 25 24 21 20 23 19 18 16 17 16 13 12 11 10 11 11 10 12 12 16 25 33 37 35 31 29 31 27 33 32 29 31 29 28 30 29 27 26 26 26
41 36 33 33 31 29 26 25 23 20 19 17 16 14 12 12 10 13 9 9 9 10 12 14 19 27 29 25 27 31 33 32 31 28 25 26 27 27 23 22 23 24 25
46 43 41 39 39 34 34 32 27 24 23 22 20 18 17 15 14 14 14 12 12 13 10 10 10 15 17 20 25 26 25 23 22 26 27 23 23 24 25 24 23 23 23
50 49 47 44 44 42 39 39 34 28 28 26 23 22 18 17 16 16 17 16 14 14 13 10 5 5 8 14 18 25 27 28 29 23 23 24 24 24 23 23 25 26 25
44 42 51 53 45 46 50 51 40 33 33 30 26 25 21 20 20 17 17 18 18 16 17 15 12 9 6 7 8 10 13 14 17 20 23 23 23 23 23 25 26 27 28
19 35 18 31 53 53 55 53 45 36 36 34 30 27 25 23 22 22 19 20 21 20 22 20 17 14 12 11 11 13 15 17 19 20 21 23 23 24 26 27 26 27 26
12 19 15 11 18 32 40 37 46 38 36 39 33 28 30 27 25 26 23 23 22 21 22 24 22 21 19 18 18 19 20 19 22 21 23 25 25 27 28 27 27 27 26
18 16 22 25 20 24 31 36 40 39 38 40 36 34 32 29 27 28 26 25 23 22 25 23 25 25 24 26 23 24 23 23 23 22 23 25 26 28 27 25 26 26 26
22 24 21 23 18 21 25 29 42 46 42 38 38 38 33 30 29 28 27 25 27 25 27 26 25 26 26 25 26 27 25 23 22 23 23 25 24 23 24 26 26 26 26
16 21 23 21 21 22 20 15 31 40 34 38 42 39 38 33 34 31 30 29 28 29 28 28 28 30 28 26 24 23 26 25 25 26 27 24 23 23 23 25 26 26 26
20 22 23 26 24 20 17 19 24 27 38 42 38 38 40 38 39 37 34 32 30 33 33 31 32 31 32 31 28 27 28 28 31 29 29 24 27 25 22 22 23 26 25
Wind_Direction
208 216 219 224 230 231 232 232 222 221 223 221 224 229 232 230 232 226 223 222 212 213 219 213 209 221 234 246 259 286 310 322 327 334 335 338 337 358 356 348 339 345 337
219 223 226 231 228 226 226 237 234 228 226 220 222 226 237 234 237 234 234 245 238 222 228 232 225 225 239 252 269 285 295 305 313 320 327 330 323 334 350 353 349 345 352
220 229 224 232 226 224 222 228 231 233 234 225 226 225 233 234 237 241 240 237 238 237 229 229 236 238 238 252 266 278 285 295 304 312 320 319 322 325 330 338 348 342 4
217 219 219 221 217 224 224 224 226 229 237 237 231 231 235 239 238 238 244 244 244 243 235 227 233 240 247 255 266 276 287 295 300 308 314 314 313 318 323 331 332 330 326
212 216 214 215 215 226 227 227 232 238 236 242 241 237 233 236 239 242 242 243 245 250 246 237 238 243 247 258 266 275 283 290 298 305 307 306 305 303 314 313 321 322 321
218 225 225 217 230 236 231 232 238 230 246 247 249 248 240 233 236 243 249 251 253 251 251 250 248 250 254 258 268 276 283 289 297 302 306 303 295 293 303 311 313 313 312
190 210 229 233 229 232 223 231 247 243 242 247 248 249 250 251 249 246 244 250 257 258 252 249 251 254 257 261 268 275 280 287 294 301 306 300 291 297 309 307 308 312 309
194 202 222 228 233 230 226 228 234 241 247 250 251 250 252 252 252 250 250 247 248 254 257 253 254 253 257 264 268 271 275 280 289 292 296 294 290 294 297 298 306 306 306
208 199 216 228 232 232 231 233 237 239 243 245 250 256 255 256 257 260 259 256 252 249 248 251 256 259 260 261 264 268 270 274 280 286 289 287 288 293 293 297 300 302 300
215 213 217 227 237 237 234 233 243 250 254 256 253 255 254 255 260 263 263 262 257 257 255 252 251 255 261 265 266 264 263 269 276 280 283 279 282 287 297 301 301 297 292
238 229 225 227 229 231 231 238 245 248 250 257 266 267 262 254 253 257 262 266 259 256 254 256 258 258 258 261 264 266 271 257 276 275 277 275 278 281 289 295 296 302 294
230 238 236 240 242 230 228 236 243 252 257 265 270 271 267 261 260 260 260 263 265 258 254 254 255 260 259 260 263 267 269 267 268 267 269 272 275 277 284 288 286 294 290
241 233 236 246 247 252 245 241 243 248 253 263 267 275 271 269 263 263 262 257 268 270 259 252 254 254 258 255 264 263 264 264 262 265 261 267 274 279 280 289 293 285 282
251 248 246 245 245 252 257 254 249 248 254 257 262 264 266 265 260 258 259 262 269 272 258 248 252 257 256 256 263 268 270 264 259 256 259 274 275 278 280 288 286 289 289
243 248 253 255 253 254 255 259 258 250 250 250 254 259 265 261 250 250 254 261 269 266 255 250 250 256 254 260 270 264 265 265 263 264 268 272 274 277 282 289 284 279 283
239 237 248 252 252 250 254 255 257 255 243 243 247 248 253 270 258 252 263 281 268 272 266 256 253 257 258 263 265 257 269 260 262 266 269 274 276 283 283 281 286 284 281
243 240 237 245 249 255 254 258 253 254 247 244 244 244 245 246 248 248 246 258 263 274 289 271 260 257 252 256 260 256 263 261 256 264 270 273 277 278 280 277 278 277 276
242 248 248 247 245 247 250 251 250 252 252 243 242 243 244 242 251 257 251 254 265 274 287 289 277 254 251 257 254 257 258 258 259 264 270 272 271 274 276 281 284 286 285
241 243 251 250 245 248 247 238 245 247 248 248 243 240 245 251 247 256 261 264 262 268 273 284 303 263 250 244 253 253 254 250 262 261 267 270 272 275 279 284 285 286 285
239 255 246 250 242 248 249 240 230 239 245 242 243 243 240 248 253 251 260 267 263 261 265 268 263 260 252 258 259 264 257 249 257 260 265 270 273 279 281 283 288 287 284
269 253 236 245 247 249 259 245 234 228 239 239 239 245 243 242 250 255 253 265 272 276 268 263 259 258 257 256 259 258 259 258 261 265 269 272 272 274 279 281 282 285 283
189 222 241 220 227 236 252 224 231 227 233 235 235 241 246 246 249 260 262 263 267 272 274 262 261 255 254 256 263 260 254 256 262 266 267 270 275 277 279 279 278 278 278
225 248 236 237 238 219 222 231 232 230 234 232 234 236 243 247 249 255 257 262 260 267 267 264 261 259 261 258 262 262 262 255 257 263 267 272 274 274 277 279 277 276 276
232 230 241 244 245 241 237 244 248 241 234 237 239 240 241 243 248 249 254 256 259 256 263 271 267 263 256 263 261 256 253 247 253 260 264 272 277 283 281 278 277 275 272
248 236 247 240 236 253 250 263 258 252 240 254 249 246 243 245 249 249 249 252 254 262 258 262 265 270 266 263 259 251 243 245 255 262 269 276 286 289 281 278 276 274 274
277 265 264 247 236 249 256 276 270 271 243 247 250 253 249 246 248 251 253 249 255 261 261 262 263 259 263 261 261 254 252 252 259 267 272 276 277 275 274 279 280 274 272
Height
5885 5887 5889 5891 5893 5895 5898 5900 5901 5903 5906 5907 5910 5911 5913 5915 5916 5916 5918 5920 5921 5921 5922 5922 5923 5924 5924 5925 5925 5925 5925 5925 5924 5923 5922 5920 5919 5917 5915 5913 5912 5911 5911
5883 5885 5886 5888 5890 5893 5895 5898 5900 5902 5904 5906 5907 5909 5910 5913 5914 5915 5917 5920 5921 5920 5921 5922 5922 5923 5923 5924 5924 5924 5924 5923 5923 5923 5922 5920 5918 5917 5915 5914 5912 5912 5911
5881 5882 5883 5885 5887 5890 5893 5896 5898 5900 5902 5904 5906 5908 5909 5910 5912 5914 5915 5917 5918 5919 5919 5920 5920 5921 5921 5922 5922 5922 5922 5922 5921 5921 5921 5919 5917 5916 5915 5913 5912 5911 5910
5878 5879 5880 5881 5883 5887 5890 5893 5895 5897 5899 5901 5904 5906 5907 5909 5910 5912 5913 5914 5915 5916 5917 5918 5918 5919 5920 5920 5920 5920 5921 5920 5920 5920 5919 5917 5916 5915 5914 5912 5911 5910 5909
5874 5876 5878 5880 5882 5885 5887 5890 5892 5894 5896 5898 5901 5903 5905 5906 5907 5909 5910 5911 5912 5914 5915 5915 5916 5916 5918 5918 5918 5918 5918 5917 5918 5917 5917 5916 5914 5913 5912 5910 5909 5908 5907
5872 5874 5876 5878 5880 5882 5884 5887 5889 5891 5892 5895 5896 5898 5900 5903 5904 5905 5906 5907 5909 5910 5911 5912 5913 5914 5914 5915 5915 5916 5915 5915 5915 5914 5913 5913 5912 5910 5908 5908 5907 5906 5905
5869 5872 5874 5875 5876 5878 5880 5883 5886 5888 5889 5891 5893 5894 5895 5897 5899 5901 5902 5902 5905 5906 5908 5909 5909 5910 5911 5911 5912 5912 5912 5912 5912 5912 5911 5909 5909 5908 5907 5906 5905 5904 5902
5868 5869 5871 5872 5873 5874 5876 5878 5881 5882 5885 5887 5888 5889 5892 5893 5893 5894 5896 5898 5900 5901 5903 5904 5905 5906 5906 5907 5907 5907 5908 5908 5909 5908 5908 5907 5906 5905 5904 5903 5902 5900 5899
5867 5868 5868 5870 5870 5871 5872 5875 5876 5878 5878 5881 5883 5884 5887 5888 5888 5888 5889 5892 5894 5896 5897 5899 5900 5901 5901 5902 5903 5903 5903 5904 5905 5905 5904 5903 5902 5901 5900 5899 5898 5896 5894
5865 5865 5864 5866 5867 5868 5870 5872 5874 5876 5877 5878 5878 5879 5881 5883 5883 5885 5885 5885 5886 5887 5889 5892 5893 5895 5895 5896 5897 5897 5898 5899 5900 5900 5900 5899 5899 5897 5897 5895 5894 5893 5891
5863 5863 5862 5862 5862 5864 5865 5867 5869 5871 5872 5873 5875 5874 5876 5875 5875 5877 5877 5879 5879 5881 5883 5885 5886 5887 5888 5889 5890 5892 5891 5894 5894 5894 5895 5894 5894 5893 5892 5891 5890 5888 5886
5861 5861 5861 5860 5860 5860 5861 5862 5863 5865 5866 5868 5869 5869 5868 5869 5870 5870 5871 5871 5873 5874 5876 5878 5880 5881 5883 5884 5884 5885 5885 5887 5888 5888 5889 5889 5889 5888 5887 5886 5884 5883 5881
5859 5857 5857 5858 5858 5859 5859 5858 5858 5859 5861 5863 5862 5863 5862 5863 5863 5864 5864 5865 5865 5865 5867 5870 5871 5873 5874 5876 5878 5879 5879 5880 5880 5880 5882 5883 5883 5883 5882 5881 5879 5877 5876
5854 5855 5854 5855 5856 5856 5856 5855 5855 5855 5855 5856 5857 5858 5856 5856 5857 5858 5859 5858 5858 5856 5858 5862 5863 5866 5867 5870 5872 5873 5872 5873 5875 5876 5877 5877 5877 5876 5876 5876 5875 5873 5871
5846 5849 5850 5851 5851 5852 5853 5853 5851 5850 5850 5851 5852 5851 5851 5849 5849 5850 5850 5851 5850 5849 5850 5853 5856 5858 5860 5862 5865 5866 5866 5867 5869 5870 5871 5871 5871 5870 5869 5868 5867 5866 5865
5833 5839 5842 5845 5846 5846 5847 5847 5847 5846 5845 5845 5846 5847 5846 5846 5844 5845 5846 5846 5845 5844 5846 5846 5848 5850 5852 5854 5858 5859 5860 5861 5863 5864 5865 5866 5865 5864 5862 5860 5859 5858 5858
5823 5829 5832 5834 5838 5839 5840 5842 5841 5841 5840 5840 5841 5842 5842 5842 5842 5842 5841 5842 5840 5840 5840 5840 5841 5841 5843 5846 5849 5852 5854 5854 5856 5858 5859 5858 5858 5857 5855 5854 5852 5851 5851
5815 5819 5824 5826 5827 5829 5832 5834 5835 5835 5836 5834 5835 5836 5836 5836 5837 5839 5838 5836 5837 5837 5835 5834 5834 5835 5836 5837 5841 5844 5845 5847 5850 5851 5852 5851 5850 5849 5848 5847 5846 5846 5846
5803 5807 5810 5812 5815 5818 5822 5823 5828 5827 5828 5829 5829 5830 5831 5833 5832 5832 5834 5834 5832 5832 5832 5831 5829 5830 5831 5832 5835 5837 5839 5841 5843 5844 5845 5844 5844 5844 5843 5842 5841 5839 5839
5790 5792 5798 5797 5796 5801 5805 5809 5815 5819 5821 5821 5822 5823 5824 5826 5828 5827 5829 5831 5829 5827 5827 5827 5827 5826 5827 5829 5830 5832 5833 5835 5837 5837 5838 5838 5839 5838 5837 5836 5836 5833 5832
5774 5785 5788 5787 5790 5791 5793 5798 5804 5809 5812 5813 5814 5816 5819 5820 5822 5823 5823 5825 5825 5824 5824 5823 5823 5823 5823 5824 5825 5826 5827 5829 5829 5830 5831 5832 5832 5831 5831 5830 5829 5828 5827
5772 5778 5779 5778 5779 5784 5785 5787 5794 5800 5803 5806 5807 5807 5812 5814 5814 5817 5818 5819 5819 5819 5819 5819 5818 5817 5817 5817 5818 5819 5819 5820 5821 5823 5824 5824 5824 5824 5824 5823 5822 5822 5821
5766 5770 5773 5775 5775 5776 5777 5780 5785 5790 5793 5797 5798 5800 5804 5806 5807 5809 5810 5812 5813 5813 5814 5814 5813 5811 5812 5810 5811 5811 5813 5814 5814 5815 5816 5816 5816 5817 5817 5816 5815 5815 5815
5763 5767 5769 5770 5770 5771 5773 5776 5780 5782 5784 5786 5790 5794 5796 5798 5801 5802 5804 5805 5807 5807 5807 5808 5808 5807 5804 5804 5802 5803 5805 5806 5807 5808 5810 5810 5811 5809 5809 5809 5808 5808 5808
5760 5762 5763 5764 5764 5764 5768 5768 5769 5774 5776 5780 5782 5785 5787 5789 5793 5794 5796 5798 5800 5800 5799 5800 5801 5803 5800 5798 5795 5795 5795 5798 5799 5800 5802 5804 5803 5803 5803 5802 5801 5800 5800
5755 5757 5759 5758 5758 5759 5760 5762 5766 5767 5769 5771 5772 5775 5777 5781 5783 5784 5789 5789 5792 5793 5792 5794 5794 5794 5795 5794 5791 5790 5790 5793 5793 5793 5792 5796 5793 5794 5795 5794 5794 5794 5793